STARLINK-1105 (45218 NORAD) Tracking and Keplerian Element Data

This shows tracking and keplerian element data for the satellite.

Feedback or suggestion? Click here.




ElementValue
Catalog45218
NameSTARLINK-1105
Epoch Orbit657
Epoch Day88.25001157
Epoch Year2020
RAAN72.192
Inclination52.9991
Eccentricity0.0008224
Argument of Perigee303.8088
Mean Anonmoly272.3693
Mean Motion15.62771782
Decay Rate-3.673E-05
L11 45218U 20012AS 20088.25001157 -.00003673 00000-0 -34111-4 0 9999
L22 45218 52.9991 72.1920 0008224 303.8088 272.3693 15.62771782 6570

Live tracking and technical data element details for STARLINK-1105 (NORAD 45218). STARLINK-1105 can be tracked NOW for your location showing map with azimuth and elevation plus other details from your city location.

Track the satellite on the map from your city or location and see movement details for azimuth, elevation, latitude, longitude, range, height, and movement on the map or in text.







IsCatalogInMostPopularTable: catalog: 45218, numindb: 6
Update: records affected: 1



GetName: 45218 STARLINK-1105

Hit Count: updated at: Tue, 31 Mar 2020 14:20:10 GMT